[Iaude] MPEC C88: 2006 JA91 [a=2.14,e=0.43,i=7.2,H=19.8]

mpec at cfa.harvard.edu mpec at cfa.harvard.edu
Thu Feb 8 13:56:53 EST 2024


M.P.E.C. 2024-C88                              Issued 2024 February 8, 18:55 UT

     The Minor Planet Electronic Circulars contain information on unusual
         minor planets, routine data on comets and natural satellites,
         and occasional editorial announcements.  They are published
    on behalf of Division F of the International Astronomical Union by the
          Minor Planet Center, Smithsonian Astrophysical Observatory,
                          Cambridge, MA 02138, U.S.A.
			  
             Prepared using the Tamkin Foundation Computer Network

                              MPC at CFA.HARVARD.EDU
            URL https://www.minorplanetcenter.net/    ISSN 1523-6714

                                   2006 JA91                                    

     The following astrometry was found among the isolated tracklets and linked
by A. Doppler.

Observations:
     K06J91A* C2006 05 06.24440 13 31 38.64 -11 47 01.2          20.0 VrEC088G96
     K06J91A  C2006 05 06.25004 13 31 38.35 -11 46 54.3          19.8 VrEC088G96
     K06J91A  C2006 05 06.25569 13 31 38.06 -11 46 48.1          20.0 VrEC088G96
     K06J91A  C2006 05 06.26135 13 31 37.77 -11 46 41.8          20.0 VrEC088G96
     K06J91A  C2006 05 26.26130 13 24 03.78 -05 34 40.1          19.8 VrEC088G96
     K06J91A  C2006 05 26.26626 13 24 03.78 -05 34 35.1          19.9 VrEC088G96
     K06J91A  C2006 05 26.27127 13 24 03.74 -05 34 30.1          19.8 VrEC088G96
     K06J91A  C2006 05 26.27622 13 24 03.74 -05 34 25.0          19.9 VrEC088G96
     K06J91A  C2006 05 26.29780 13 24 03.78 -05 34 03.7          20.1 VrEC088G96
     K06J91A  C2006 05 26.30359 13 24 03.78 -05 33 57.9          19.9 VrEC088G96
     K06J91A  C2006 05 26.30943 13 24 03.78 -05 33 51.9          20.0 VrEC088G96
     K06J91A  C2006 05 26.31529 13 24 03.78 -05 33 46.2          19.9 VrEC088G96
     K06J91A  C2006 05 28.26952 13 24 22.64 -05 02 12.0          20.4 VrEC088G96
     K06J91A  C2006 05 28.27551 13 24 22.68 -05 02 06.1          19.6 VrEC088G96
     K06J91A  C2006 05 28.28150 13 24 22.75 -05 02 00.5          20.2 VrEC088G96
     K06J91A  C2006 05 28.28766 13 24 22.78 -05 01 55.0          20.2 VrEC088G96

Observer details:
G96 Mt. Lemmon Survey.  Observers A. D. Grauer, E. J. Christensen, R. A.
    Kowalski.  Measurers E. C. Beshore, E. J. Christensen, G. J. Garradd, A.
    R. Gibbs, A. D. Grauer, R. E. Hill, R. A. Kowalski, S. M. Larson, R. H.
    McNaught.  1.5-m reflector + CCD.

Orbital elements:
2006 JA91                                                Earth MOID = 0.2249 AU
Epoch 2023 Sept. 13.0 TT = JDT 2460200.5                Veres                   
M 173.57023              (2000.0)            P               Q                  
n   0.31563294     Peri.   60.02315     +0.23795287     +0.96736681             
a   2.1363931      Node   224.02254     -0.92871650     +0.20036654             
e   0.4337224      Incl.    7.19695     -0.28436613     +0.15509582             
P   3.12           H   19.82          G   0.15           U   7                  
Residuals in seconds of arc
060506 G96  0.1-  0.1-    060526 G96  0.4-  0.0     060528 G96  0.2-  0.0
060506 G96  0.0   0.3+    060526 G96  0.4-  0.1+    060528 G96  0.2-  0.2+
060506 G96  0.0   0.0     060526 G96  0.2+  0.1-    060528 G96  0.3+  0.1+
060506 G96  0.1+  0.2-    060526 G96  0.1+  0.0     060528 G96  0.1+  0.3-
060526 G96  0.2+  0.1-    060526 G96  0.0   0.1+
060526 G96  0.2+  0.0     060526 G96  0.0   0.0

Ephemeris:
2006 JA91                a,e,i = 2.14, 0.43, 7                   q = 1.2098
Date    TT    R. A. (2000) Decl.     Delta      r    Elong.  Phase     V
2024 01 09    08 09 18.8 +09 43 53   2.0456  2.9976   162.4     5.7    24.2
...
2024 01 24    07 52 38.9 +10 20 20   2.0049  2.9759   168.5     3.8    24.1
...
2024 02 01    07 43 50.3 +10 46 29   2.0120  2.9630   161.6     6.0    24.2
...
2024 02 07    07 37 41.1 +11 07 57   2.0299  2.9528   154.9     8.1    24.3
2024 02 08    07 36 42.9 +11 11 37   2.0339  2.9510   153.8     8.5    24.3
2024 02 09    07 35 45.7 +11 15 19   2.0381  2.9493   152.6     8.8    24.3
...
2024 02 15    07 30 28.2 +11 37 43   2.0693  2.9384   145.7    10.9    24.4
...
2024 02 23    07 24 42.7 +12 07 26   2.1244  2.9230   136.6    13.5    24.6
...
2024 03 09    07 18 28.8 +12 59 00   2.2604  2.8919   120.3    17.2    24.8

M. P. C. Staff               (C) Copyright 2024 MPC           M.P.E.C. 2024-C88





More information about the Iaude mailing list